Location: Bernadets
(43.3537°N, 0.3167°E)
Time: 12:34:10
(UTC+00:00)

Okean-O - Visible Passes

Search period start: 29 May 2022 00:00
Search period end: 08 June 2022 00:00
Orbit: 637 x 640 km, 98.1° (Epoch: 29 May)

Date Brightness Start Highest point End Pass type
(mag) Time Alt. Az. Time Alt. Az. Time Alt. Az.
29 May 3.5 19:54:42 10° S 19:59:01 52° W 20:03:21 10° NNW visible
30 May 4.5 20:18:20 10° SSW 20:22:13 30° W 20:26:07 10° NW visible
31 May 5.2 20:42:32 10° SW 20:45:30 18° W 20:48:30 10° NW visible
03 Jun 4.3 20:14:10 10° SSW 20:18:09 33° W 20:22:10 10° NNW visible
04 Jun 5.1 20:38:12 10° SW 20:41:24 19° W 20:44:38 10° NW visible
05 Jun 5.5 21:03:26 10° WSW 21:04:45 11° W 21:06:04 10° WNW visible
07 Jun 4.1 20:09:58 10° SSW 20:14:04 37° W 20:18:11 10° NNW visible
